Вернуться в каталог

STARLINK-36147

АктивенСвязьVLEO
NORAD 66987·PAYLOAD·🇺🇸 United States

Запущен Dec 8, 2025 с Cape Canaveral Space Force Station

Loading…

Ближайшие Пролёты (ближайшие 24 часа)

TLE

СвежийSource: CelesTrak SupGP

Эпоха: Sep 15, 2026, 03:16 UTC

1 66987C 25288AE  26258.13659722 -.00011635  00000+0 -42141-3 0  2589
2 66987  43.0034  33.4910 0001498 265.3350  18.6707 15.27585879    15

Отслеживайте STARLINK-36147 в реальном времени с AllMySat

Download on the App Store